This demonstration page uses our WeatherBlox Daily Observations layout. Learn more.

Left ArrowRight Arrow

41.86663, -103.66717

Hourly Observations for March 25, 2016

Temp ( °F °C ) Dew Point ( °F °C ) Humidity (%) Winds ( mph kmh ) Pressure ( in mb ) Visibility ( mi km ) Precip ( " mm )
12:53 am 00:53 Partly Cloudy 40 4.4 32 undefined 73 73 N N/A 29.75 1007 10 16 N/A
1:53 am 01:53 Clear 37 2.8 31 -0.6 79 79 S 7 11 29.73 1007 10 16 N/A
2:53 am 02:53 Clear 37 2.8 28 -2.2 70 70 S 6 9 29.71 1006 10 16 N/A
3:53 am 03:53 Mostly Cloudy 39 3.9 28 -2.2 65 65 SSW 8 13 29.68 1005 10 16 N/A
4:53 am 04:53 Clear 39 3.9 27 -2.8 62 62 N N/A 29.67 1005 10 16 N/A
5:53 am 05:53 Clear 42 5.6 27 -2.8 55 55 W 13 20 29.67 1005 10 16 N/A
6:53 am 06:53 Cloudy 42 5.6 28 -2.2 58 58 W 16 26 29.67 1005 10 16 N/A
7:53 am 07:53 Cloudy 41 5 30 -1.1 65 65 WNW 20 31 29.72 1007 10 16 N/A
8:31 am 08:31 Cloudy with Light Rain 38 3.3 34 1.1 86 86 NW 17 28 29.80 1009 8 13 N/A
8:42 am 08:42 Cloudy 37 3 36 2 93 93 NW 16 26 29.80 1009 10 16 N/A
8:53 am 08:53 Cloudy 37 2.8 33 0.6 86 86 NW 21 33 29.76 1008 10 16 0.01 0.25
9:02 am 09:02 Mostly Cloudy 37 3 34 1 87 87 NW 21 33 29.80 1009 10 16 N/A
9:10 am 09:10 Partly Cloudy 39 4 34 1 81 81 NW 21 33 29.77 1008 10 16 N/A
9:53 am 09:53 Partly Cloudy 43 6.1 30 -1.1 60 60 NW 23 37 29.76 1008 10 16 N/A
10:29 am 10:29 Mostly Cloudy 43 6.1 30 -1.1 60 60 NW 22 35 29.77 1008 10 16 N/A
10:48 am 10:48 Mostly Cloudy 45 7 30 -1 57 57 NW 29 46 29.77 1008 10 16 N/A
10:53 am 10:53 Mostly Cloudy 45 7.2 29 -1.7 54 54 NW 28 44 29.78 1008 10 16 N/A
11:53 am 11:53 Mostly Cloudy 48 8.9 27 -2.8 44 44 NW 23 37 29.77 1008 10 16 N/A
12:53 pm 12:53 Mostly Sunny 46 7.8 25 -3.9 44 44 NW 24 39 29.77 1008 10 16 N/A
1:53 pm 13:53 Sunny 49 9.4 22 -5.6 35 35 NW 20 31 29.76 1008 10 16 N/A
2:53 pm 14:53 Sunny 47 8.3 21 -6.1 36 36 NW 20 31 29.76 1008 10 16 N/A
3:53 pm 15:53 Sunny 48 8.9 20 -6.7 33 33 NNW 21 33 29.75 1007 10 16 N/A
4:53 pm 16:53 Mostly Sunny 48 8.9 20 -6.7 33 33 NW 14 22 29.75 1007 10 16 N/A
5:53 pm 17:53 Mostly Cloudy 43 6.1 27 -2.8 53 53 W 15 24 29.79 1009 10 16 N/A
6:53 pm 18:53 Mostly Cloudy 39 3.9 29 -1.7 67 67 WNW 9 15 29.83 1010 10 16 N/A
7:53 pm 19:53 Mostly Cloudy 36 2.2 33 0.6 89 89 W 10 17 29.87 1012 10 16 N/A
8:53 pm 20:53 Mostly Clear 34 1.1 30 -1.1 85 85 W 7 11 29.93 1013 10 16 N/A
9:53 pm 21:53 Cloudy 33 0.6 30 -1.1 89 89 W 3 6 29.95 1014 10 16 N/A
10:06 pm 22:06 Cloudy 34 1 30 -1 87 87 NE 6 9 30.03 1017 10 16 N/A
10:53 pm 22:53 Cloudy 33 0.6 27 -2.8 78 78 NNE 15 24 29.96 1015 10 16 N/A
11:00 pm 23:00 Cloudy 32 undefined 27 -3 80 80 NNE 15 24 30.03 1017 10 16 N/A
11:12 pm 23:12 Cloudy 30 -1 25 -4 80 80 N 15 24 30.06 1018 10 16 N/A
11:53 pm 23:53 Cloudy 30 -1.1 24 -4.4 79 79 NNE 13 20 29.99 1016 10 16 N/A

Powered by AerisWeather